Location: Fort Hays State University
(38.8712°N, 99.3432°W)
Time: 17:07:58
(UTC-05:00)

Cosmos 2279 Rocket - Visible Passes

Search period start: 22 May 2015 00:00
Search period end: 01 June 2015 00:00
Orbit: 965 x 979 km, 82.9° (Epoch: 22 May)

Date Brightness Start Highest point End Pass type
(mag) Time Alt. Az. Time Alt. Az. Time Alt. Az.
24 May 6.8 05:16:40 10° ESE 05:19:24 14° E 05:22:32 10° NE visible
25 May 6.3 05:38:34 10° SE 05:43:27 26° E 05:48:31 10° NNE visible
27 May 7.0 04:46:37 10° E 04:47:24 10° E 04:48:42 10° ENE visible
28 May 6.5 05:07:07 10° SE 05:11:25 21° E 05:15:58 10° NE visible
29 May 5.5 05:29:56 10° SSE 05:35:32 38° E 05:41:14 10° NNE visible
31 May 6.5 04:35:52 10° ESE 04:39:23 16° E 04:43:14 10° NE visible
